| time (UTC) | temp C | wind direction | speed KPH | gust KPH | rain 1hr cm | rain 24hr cm | rain mn cm | humidity % | barometer mb |
| 20260506200210 | 8 | 240 | 9.7 | 0.0 | 0.00 | 0.00 | 0.58 | 91 | 1010.3 |
| 20260506193215 | 8 | 204 | 9.7 | 0.0 | 0.00 | 0.00 | 0.48 | 91 | 1009.9 |
| 20260506190211 | 8 | 186 | 12.9 | 0.0 | 0.00 | 0.00 | 0.43 | 91 | 1009.5 |
| 20260506183209 | 8 | 184 | 8.0 | 0.0 | 0.00 | 0.00 | 0.36 | 91 | 1009.2 |
| 20260506180216 | 8 | 240 | 6.4 | 0.0 | 0.00 | 0.00 | 0.33 | 91 | 1008.9 |
| 20260506173210 | 8 | 205 | 9.7 | 0.0 | 0.00 | 0.00 | 0.30 | 91 | 1008.5 |
| 20260506170215 | 8 | 262 | 3.2 | 0.0 | 0.00 | 0.00 | 0.28 | 91 | 1008.3 |
| 20260506163210 | 9 | 252 | 9.7 | 0.0 | 0.00 | 0.00 | 0.23 | 89 | 1008.4 |
| 20260506160210 | 9 | 231 | 12.9 | 0.0 | 0.00 | 0.00 | 0.23 | 87 | 1008.3 |
| 20260506153210 | 10 | 234 | 14.5 | 0.0 | 0.00 | 0.00 | 0.20 | 88 | 1008.1 |
| 20260506150210 | 11 | 269 | 11.3 | 0.0 | 0.00 | 0.00 | 0.18 | 89 | 1007.7 |
| 20260506143210 | 11 | 230 | 8.0 | 0.0 | 0.00 | 0.00 | 0.15 | 91 | 1007.3 |
| 20260506140210 | 11 | 298 | 9.7 | 0.0 | 0.00 | 0.00 | 0.15 | 91 | 1006.9 |
| 20260506133211 | 11 | 246 | 16.1 | 0.0 | 0.00 | 0.00 | 0.15 | 91 | 1006.9 |
| 20260506130211 | 11 | 263 | 11.3 | 0.0 | 0.00 | 0.00 | 0.10 | 91 | 1006.5 |
| 20260506123210 | 11 | 290 | 12.9 | 0.0 | 0.00 | 0.00 | 0.10 | 90 | 1006.4 |
| 20260506120210 | 12 | 236 | 16.1 | 0.0 | 0.00 | 0.00 | 0.03 | 85 | 1006.3 |
| 20260506113217 | 12 | 265 | 8.0 | 0.0 | 0.00 | 0.00 | 0.03 | 78 | 1006.3 |
| 20260506110210 | 14 | 13 | 6.4 | 0.0 | 0.00 | 0.00 | 0.03 | 74 | 1006.1 |
| 20260506100213 | 15 | 224 | 4.8 | 0.0 | 0.00 | 0.00 | 0.03 | 69 | 1006.3 |
| 20260506093211 | 15 | 207 | 6.4 | 0.0 | 0.00 | 0.00 | 0.03 | 70 | 1006.5 |
| 20260506090211 | 14 | 185 | 6.4 | 0.0 | 0.00 | 0.00 | 0.03 | 72 | 1006.5 |
| 20260506083211 | 14 | 147 | 8.0 | 0.0 | 0.00 | 0.00 | 0.03 | 73 | 1006.4 |
| 20260506080212 | 13 | 197 | 12.9 | 0.0 | 0.00 | 0.00 | 0.03 | 77 | 1006.5 |
| 20260506073211 | 12 | 157 | 12.9 | 0.0 | 0.00 | 0.00 | 0.03 | 83 | 1006.5 |
| 20260506070212 | 11 | 159 | 6.4 | 0.0 | 0.00 | 0.00 | 0.03 | 88 | 1006.4 |
| 20260506060210 | 7 | 180 | 6.4 | 0.0 | 0.00 | 0.00 | 0.03 | 94 | 1006.7 |
| 20260506050211 | 6 | 165 | 8.0 | 0.0 | 0.00 | 0.00 | 0.00 | 93 | 1006.9 |
| 20260506043211 | 6 | 171 | 6.4 | 0.0 | 0.00 | 0.00 | 0.00 | 93 | 1007.2 |
| 20260506040211 | 6 | 165 | 6.4 | 0.0 | 0.00 | 0.00 | 0.00 | 92 | 1007.0 |
| 20260506033211 | 6 | 147 | 8.0 | 0.0 | 0.00 | 0.00 | 0.00 | 92 | 1007.0 |
| 20260506030212 | 6 | 157 | 3.2 | 0.0 | 0.00 | 0.00 | 0.00 | 92 | 1007.5 |
| 20260506023211 | 6 | 175 | 6.4 | 0.0 | 0.00 | 0.00 | 0.00 | 92 | 1007.9 |
| 20260506020212 | 7 | 175 | 3.2 | 0.0 | 0.00 | 0.00 | 0.00 | 92 | 1007.9 |
| 20260506013211 | 7 | 121 | 9.7 | 0.0 | 0.00 | 0.00 | 0.00 | 92 | 1008.0 |
| 20260506010212 | 7 | 168 | 3.2 | 0.0 | 0.00 | 0.00 | 0.00 | 91 | 1008.1 |
| 20260506003209 | 8 | 157 | 4.8 | 0.0 | 0.00 | 0.00 | 0.00 | 91 | 1008.0 |
| 20260506000211 | 8 | 144 | 1.6 | 0.0 | 0.00 | 0.00 | 0.00 | 91 | 1008.5 |
| 20260505233209 | 8 | 160 | 11.3 | 0.0 | 0.00 | 0.00 | 0.00 | 91 | 1008.8 |
| 20260505230209 | 8 | 142 | 9.7 | 0.0 | 0.00 | 0.00 | 0.00 | 91 | 1008.7 |
| 20260505223210 | 8 | 175 | 6.4 | 0.0 | 0.00 | 0.00 | 0.00 | 91 | 1008.9 |
| 20260505220209 | 9 | 161 | 8.0 | 0.0 | 0.00 | 0.00 | 0.00 | 90 | 1008.8 |
| 20260505213211 | 10 | 167 | 6.4 | 0.0 | 0.00 | 0.00 | 0.41 | 89 | 1008.7 |
| 20260505210215 | 10 | 179 | 1.6 | 0.0 | 0.00 | 0.00 | 0.41 | 89 | 1009.0 |
| 20260505203209 | 10 | 190 | 1.6 | 0.0 | 0.00 | 0.00 | 0.41 | 88 | 1008.5 |